Total_Precipitation_Accumulation
0.05 0.05 0.09 0.06 0.04 0.06 0.10 0.10 0.09 0.10 0.11 0.12 0.11 0.09 0.11 0.14 0.12 0.08 0.07 0.09 0.10 0.14 0.18 0.19 0.23 0.24 0.23 0.24 0.25 0.24 0.24 0.29 0.36 0.37 0.33 0.34 0.41 0.56 0.76 0.83 0.79 0.58 0.49
0.02 0.03 0.09 0.08 0.05 0.06 0.09 0.11 0.11 0.12 0.10 0.09 0.10 0.13 0.17 0.15 0.14 0.09 0.07 0.08 0.09 0.11 0.13 0.15 0.16 0.17 0.18 0.19 0.19 0.19 0.21 0.25 0.33 0.38 0.32 0.26 0.40 0.61 0.73 0.71 0.82 0.59 0.48
0.02 0.02 0.05 0.08 0.06 0.06 0.07 0.09 0.13 0.14 0.11 0.09 0.11 0.14 0.15 0.15 0.15 0.12 0.12 0.09 0.09 0.09 0.10 0.10 0.10 0.12 0.11 0.11 0.13 0.16 0.18 0.20 0.29 0.40 0.58 0.45 0.29 0.57 0.64 0.61 0.56 0.42 0.39
0.01 0.01 0.02 0.06 0.06 0.05 0.06 0.08 0.12 0.14 0.10 0.10 0.16 0.17 0.13 0.15 0.17 0.16 0.15 0.11 0.11 0.08 0.08 0.07 0.08 0.08 0.07 0.07 0.10 0.14 0.17 0.26 0.38 0.60 0.93 0.60 0.34 0.40 0.52 0.47 0.37 0.36 0.35
0.02 0.01 0.03 0.06 0.06 0.05 0.06 0.07 0.10 0.12 0.11 0.11 0.15 0.15 0.12 0.15 0.17 0.16 0.14 0.14 0.16 0.11 0.06 0.07 0.08 0.07 0.06 0.07 0.09 0.14 0.18 0.27 0.44 0.70 0.77 0.70 0.63 0.45 0.43 0.44 0.45 0.46 0.41
0.03 0.02 0.04 0.07 0.07 0.06 0.06 0.07 0.09 0.12 0.11 0.10 0.10 0.13 0.12 0.17 0.23 0.21 0.16 0.18 0.21 0.19 0.11 0.07 0.07 0.08 0.08 0.08 0.09 0.14 0.20 0.34 0.51 0.54 0.49 0.56 0.68 0.54 0.48 0.62 0.74 0.68 0.57
0.04 0.04 0.04 0.07 0.08 0.07 0.07 0.08 0.09 0.10 0.10 0.08 0.08 0.09 0.09 0.13 0.19 0.20 0.18 0.18 0.18 0.17 0.14 0.11 0.08 0.09 0.10 0.12 0.13 0.17 0.26 0.42 0.57 0.50 0.47 0.59 0.66 0.47 0.57 0.81 1.04 0.94 0.75
0.04 0.04 0.05 0.09 0.09 0.09 0.09 0.08 0.09 0.09 0.09 0.09 0.09 0.08 0.08 0.10 0.13 0.15 0.15 0.15 0.14 0.11 0.11 0.12 0.13 0.13 0.12 0.14 0.17 0.21 0.29 0.32 0.41 0.51 0.48 0.56 0.44 0.41 0.66 0.91 1.09 0.99 0.83
0.10 0.07 0.09 0.10 0.11 0.10 0.11 0.10 0.10 0.10 0.10 0.10 0.10 0.09 0.09 0.10 0.11 0.13 0.16 0.15 0.14 0.14 0.15 0.16 0.15 0.14 0.15 0.15 0.17 0.22 0.30 0.32 0.38 0.54 0.58 0.72 0.59 0.63 0.87 1.04 1.04 1.01 0.91
0.26 0.19 0.17 0.16 0.16 0.15 0.12 0.12 0.14 0.13 0.12 0.13 0.12 0.11 0.11 0.12 0.14 0.18 0.19 0.19 0.18 0.21 0.22 0.25 0.26 0.24 0.24 0.23 0.25 0.31 0.36 0.34 0.35 0.50 0.75 0.73 0.68 0.85 1.08 1.17 1.18 1.14 1.13
0.58 0.44 0.36 0.29 0.24 0.21 0.18 0.17 0.20 0.21 0.21 0.21 0.21 0.20 0.19 0.22 0.31 0.39 0.33 0.37 0.38 0.40 0.43 0.47 0.50 0.48 0.43 0.36 0.42 0.55 0.50 0.44 0.51 0.76 0.90 0.80 0.75 1.01 1.25 1.29 1.33 1.35 1.34
0.85 0.73 0.65 0.59 0.38 0.30 0.31 0.38 0.41 0.38 0.40 0.40 0.50 0.50 0.49 0.56 0.56 0.45 0.54 0.72 0.79 0.91 0.93 0.97 1.02 0.88 0.72 0.64 1.02 1.22 0.56 0.60 0.73 0.93 1.16 1.04 1.04 1.34 1.60 1.48 1.36 1.41 1.37
1.11 0.85 0.82 0.93 0.73 0.59 0.65 0.59 0.56 0.59 0.69 0.69 0.71 0.76 0.85 0.77 0.64 0.61 0.74 0.94 1.09 1.26 1.39 1.72 1.80 1.42 1.37 1.37 1.47 1.34 0.76 0.70 0.77 0.84 1.20 1.29 1.33 1.69 2.00 1.79 1.56 1.49 1.45
1.22 0.94 0.86 0.93 1.01 0.91 0.82 0.79 0.75 0.73 0.81 0.85 0.97 1.04 1.17 1.07 0.96 0.99 1.15 1.28 1.47 1.61 1.86 2.04 2.27 2.05 1.82 1.60 1.52 1.37 1.19 1.10 1.04 1.18 1.49 1.30 1.39 1.75 2.09 2.00 1.76 1.60 1.52
1.41 1.17 1.02 1.00 1.12 1.10 1.01 0.97 0.91 0.89 0.90 1.06 1.22 1.31 1.42 1.47 1.53 1.59 1.51 1.65 1.72 1.86 2.04 2.34 2.39 2.52 2.54 2.43 2.06 1.77 1.67 1.54 1.40 1.58 1.81 1.69 1.48 1.57 1.91 2.20 2.04 1.79 1.65
1.84 1.60 1.34 1.19 1.13 1.16 1.18 1.19 1.20 1.19 1.31 1.43 1.61 1.66 1.84 1.99 2.08 2.22 2.20 2.18 2.01 2.03 2.21 2.50 2.65 3.04 2.92 2.75 2.24 2.03 1.84 1.75 1.49 1.50 1.75 1.92 1.59 1.46 1.64 2.06 2.28 2.15 1.95
2.11 2.05 1.87 1.69 1.65 1.73 1.89 1.85 1.71 1.80 1.89 1.97 2.08 2.11 2.20 2.26 2.38 2.54 2.48 2.37 2.33 2.36 2.49 2.64 2.78 2.90 2.65 2.54 2.36 2.20 1.96 1.74 1.47 1.46 1.58 1.76 1.66 1.49 1.53 1.74 2.06 2.20 2.13
2.17 2.38 2.43 2.31 2.40 2.52 2.68 2.62 2.42 2.40 2.40 2.39 2.35 2.36 2.40 2.45 2.57 2.82 2.62 2.47 2.73 2.64 2.72 3.00 2.99 2.95 2.74 2.62 2.45 2.21 2.04 1.80 1.42 1.38 1.39 1.54 1.75 1.55 1.57 1.71 1.82 1.87 2.08
2.26 2.58 2.76 2.90 3.09 3.14 3.19 3.16 3.10 2.98 2.85 2.62 2.55 2.51 2.38 2.37 2.48 2.71 2.52 2.53 2.67 2.91 2.93 2.73 3.11 3.06 2.87 2.73 2.33 2.06 1.80 1.56 1.35 1.23 1.23 1.27 1.46 1.37 1.37 1.51 1.61 1.69 2.04
2.64 2.94 3.32 3.49 3.58 3.34 3.24 3.24 3.10 2.88 2.70 2.59 2.57 2.43 2.25 2.29 2.36 2.67 2.49 2.44 2.57 2.79 2.73 2.73 2.94 2.96 2.71 2.71 2.23 1.79 1.57 1.27 1.20 1.20 1.08 1.11 1.15 1.02 1.07 1.32 1.72 1.48 1.61
3.10 3.32 3.58 3.90 4.02 3.74 3.69 3.66 3.55 3.21 3.04 2.74 2.45 2.14 2.04 2.02 2.18 2.50 2.29 2.48 2.47 2.48 2.48 2.54 2.77 2.78 2.54 2.67 2.44 1.90 1.40 1.07 0.99 1.00 1.04 1.05 0.96 1.04 1.29 1.54 1.72 1.73 1.64
2.87 3.31 3.62 3.59 3.50 3.26 3.32 3.52 3.69 3.63 3.23 2.68 2.39 2.22 1.98 1.90 2.01 2.16 2.24 2.15 2.20 2.26 2.29 2.34 2.53 2.37 2.14 2.39 2.44 2.28 1.61 1.21 0.92 0.79 1.04 1.07 1.03 1.17 1.29 1.36 1.58 1.84 1.87
2.33 2.70 2.83 2.69 2.59 2.46 2.45 2.64 2.79 3.01 2.87 2.53 2.23 2.05 1.93 1.86 1.84 1.89 1.96 1.98 2.00 1.97 2.01 2.16 2.16 2.11 1.97 2.01 2.22 2.37 1.93 1.44 1.14 0.81 0.77 0.87 1.05 1.15 1.17 1.32 1.35 1.49 1.59
1.59 1.67 1.78 1.86 1.88 1.91 1.94 2.10 2.29 2.49 2.46 2.36 2.27 2.00 1.77 1.61 1.56 1.57 1.58 1.62 1.69 1.72 1.83 1.75 1.79 1.96 1.98 1.85 1.97 2.02 1.94 1.85 1.66 1.11 0.81 0.81 1.04 1.09 1.09 1.09 1.19 1.36 1.46
1.30 1.39 1.45 1.56 1.69 1.78 1.81 1.89 2.03 2.31 2.30 2.10 1.93 1.76 1.65 1.54 1.45 1.38 1.41 1.41 1.40 1.44 1.54 1.58 1.77 1.81 1.87 1.83 1.80 1.80 1.89 1.88 1.74 1.47 1.06 0.98 0.99 0.92 0.98 1.04 1.15 1.35 1.53
1.09 1.22 1.30 1.33 1.40 1.47 1.53 1.57 1.56 1.67 1.70 1.59 1.50 1.44 1.36 1.27 1.23 1.25 1.24 1.25 1.26 1.31 1.43 1.47 1.51 1.53 1.59 1.63 1.60 1.62 1.71 1.66 1.59 1.62 1.33 1.21 1.18 1.01 1.04 1.09 1.13 1.25 1.34